Location: Azul
(36.7830°S, 59.8500°W)
Time: 13:15:05
(UTC-03:00)

ISS - Pass Details

Date: 15 August 2017
Orbit: 401 x 408 km, 51.6° (Epoch: 19 August)

Event Time Altitude Azimuth Distance (km) Brightness Sun altitude
Exits shadow 05:56:18 11° 173° (S) 1,421 -1.0 -21.7°
Maximum altitude 05:57:02 12° 159° (SSE) 1,386 -0.9 -21.6°
Drops below altitude 10° 05:58:24 10° 135° (SE) 1,497 -0.4 -21.3°
Sets 06:01:37 0° 102° (ESE) 2,355 1.5 -20.7°
